sat.trackr.live / text

‹ back to catalog

STARLINK-35033

NORAD 65468 · 2025-195L

PAYLOAD ACTIVE UNKNOWN

§ Identity

Operator
Country
US
Launch date
2025-09-03
Launch site
AFETR
Launch vehicle
Mass (kg)
RCS (m²)

Purposes: comms

External: N2YO · Heavens-Above · Gunter

§ Orbital elements

Epoch: 2026-09-20T22:33:14.292000Z

Period
94.01 min
Inclination
53.1587°
Eccentricity
0.0001014
Mean motion
15.31709636 rev/d
Perigee alt
470.0 km
Apogee alt
471.4 km
Semi-major
6,848.8 km
B*
4.5442e-4
RAAN
69.3931°
Arg perigee
101.0160°
Mean anomaly
259.0955°
Rev number
5,991

§ Raw data

STARLINK-350331 65468U 25195L   26263.93974875  .00013766  00000+0  45442-3 0  99962 65468  53.1587  69.3931 0001014 101.0160 259.0955 15.31709636 59916

JSON: /api/v1/satellites/65468 · /tle

For live sub-satellite position, see the globe view (requires WebGL).

§ Visibility from observer

Set your observer location to see the next 7 days of passes ≥ 10°. The values pass through the URL so the page stays shareable.

No JS? Fill the form by hand. The geolocation button needs JavaScript.